Powrót do katalogu

CZ-4B DEB

AktywnyPO
NORAD 57397·DEBRIS·🇨🇳 China

Wystrzelony Oct 24, 2018 z Taiyuan Satellite Launch Center

Loading…

Następne Przeloty (najbliższe 24 godziny)

TLE

Starzejące sięSource: Space-Track

Epoka: Sep 10, 2026, 13:50 UTC

1 57397U 18081Q   26253.57660802  .00001346  00000-0  35744-3 0  9991
2 57397  99.3701 189.1211 0193962 349.6703  10.0522 14.40082691179289

Śledź CZ-4B DEB w czasie rzeczywistym z AllMySat

Download on the App Store